一网星座-0562星 (ONEWEB-0562)

导读 | 豆包AI

ONEWEB-0562是英国一网(OneWeb)星座的低轨通信卫星,于2023年3月9日发射入轨。作为OneWeb全球卫星互联网组网的组成部分,它运行在近地轨道,依托Ku波段相控阵天线技术,为偏远地区、航空海运等场景提供宽带互联网接入服务。该卫星助力OneWeb完成全球星座部署,推动星地一体化通信网络建设,填补地面网络覆盖盲区,支撑全球泛在互联的通信需求。

基本信息
目录编号:
55799
目录名称:
ONEWEB-0562
国际标识:
2023-029D
轨道中心:
EARTH
卫星名称:
一网星座-0562星
卫星全名:
一网星座-0562星 (ONEWEB-0562)
卫星状态:
在轨 (已飞行1101 天)
发射日期:
2023-03-09 UTC
国别 :
英国 (GB)
星等 :
--
轨道信息
数据来源 国际轨道数据 AOE轨道数据
星历时间 2026-03-14T04:17:08+0800
9小时前
查看轨道信息
2026-03-11T10:00:00+0800
3天前
查看轨道信息
半长轴 7559.918km 7559.912km
偏心率 0.0000812 0.0000857
轨道倾角 87.915° 87.918°
近地点辐角 69.375° 53.339°
升交点赤经 293.497° 294.049°
平近点角 290.747° 142.155°
近地点 1181.167km 1181.127km
远地点 1182.395km 1182.423km
周期 109.027分钟 109.027分钟
每日圈数 13.2077 13.207715
详细信息
平衡模式:
三轴稳定
覆盖范围:
全球
运营商:
一网卫星公司
运营商所在国:
英国
制造商(研发单位):
一网卫星公司
制造商所在国:
英国
使用方式:
暂无
卫星简介
OneWeb卫星网络由648颗重约125公斤的微型卫星组成,运行在1200公里的轨道上。 每颗卫星都能够提供至少每秒8千兆位的吞吐量,以使用其高吞吐量的Ku频段有效载荷为家庭和移动平台提供互联网接入。该卫星仍在工作。
2D轨道图
3D轨道图
轨道高度分析图
轨道倾角分析图
轨道综合分析图
查看轨道综合分析图